Time,TemperatureF,DewpointF,PressureIn,WindDirection,WindDirectionDegrees,WindSpeedMPH,WindSpeedGustMPH,Humidity,HourlyPrecipIn,Conditions,Clouds,dailyrainin,SoftwareType,DateUTC
2013-01-29 00:03:00,36.0,36.0,29.10,ESE,123,2.0,6.0,100,0.01,,---,0.00,VWS V12.07,2013-01-29 06:03:00,
2013-01-29 00:08:00,36.1,36.1,29.10,NW,321,2.0,6.0,100,0.01,,---,0.00,VWS V12.07,2013-01-29 06:08:00,
2013-01-29 00:13:00,36.2,36.2,29.08,East,98,4.0,6.0,100,0.01,,---,0.00,VWS V12.07,2013-01-29 06:13:00,
2013-01-29 00:18:00,36.2,36.2,29.07,East,96,5.0,10.0,100,0.01,,---,0.00,VWS V12.07,2013-01-29 06:18:00,
2013-01-29 00:23:00,36.2,36.2,29.06,ESE,106,1.0,10.0,100,0.01,,---,0.00,VWS V12.07,2013-01-29 06:23:00,
2013-01-29 00:28:00,36.3,36.3,29.05,ESE,104,2.0,13.0,100,0.01,,---,0.00,VWS V12.07,2013-01-29 06:28:00,
2013-01-29 00:33:00,36.4,36.4,29.06,SE,144,1.0,9.0,100,0.01,,---,0.00,VWS V12.07,2013-01-29 06:33:00,
2013-01-29 00:38:00,36.5,36.5,29.06,East,81,3.0,10.0,100,0.01,,---,0.00,VWS V12.07,2013-01-29 06:38:00,
2013-01-29 00:43:00,36.6,36.6,29.05,SSE,148,2.0,12.0,100,0.01,,---,0.00,VWS V12.07,2013-01-29 06:43:00,
2013-01-29 00:48:00,36.6,36.6,29.04,SE,127,1.0,12.0,100,0.01,,---,0.00,VWS V12.07,2013-01-29 06:48:00,
2013-01-29 00:53:00,36.7,36.7,29.04,East,81,7.0,12.0,100,0.01,,---,0.00,VWS V12.07,2013-01-29 06:53:00,
2013-01-29 00:58:00,36.8,36.8,29.03,SSE,147,4.0,12.0,100,0.01,,---,0.00,VWS V12.07,2013-01-29 06:58:00,
2013-01-29 01:03:00,36.9,36.9,29.03,South,174,3.0,10.0,100,0.00,,---,0.00,VWS V12.07,2013-01-29 07:03:00,
2013-01-29 01:08:00,36.9,36.9,29.02,SSE,166,2.0,11.0,100,0.00,,---,0.00,VWS V12.07,2013-01-29 07:08:00,
2013-01-29 01:13:00,36.9,36.9,29.02,South,190,1.0,11.0,100,0.00,,---,0.00,VWS V12.07,2013-01-29 07:13:00,
2013-01-29 01:18:00,37.0,37.0,29.02,ESE,121,2.0,11.0,100,0.00,,---,0.00,VWS V12.07,2013-01-29 07:18:00,
2013-01-29 01:23:00,37.0,37.0,29.01,SE,134,0.0,11.0,100,0.00,,---,0.00,VWS V12.07,2013-01-29 07:23:00,
2013-01-29 01:28:00,37.1,37.1,29.01,SE,136,3.0,11.0,100,0.00,,---,0.00,VWS V12.07,2013-01-29 07:28:00,
2013-01-29 01:33:00,37.3,37.3,29.01,South,181,0.0,4.0,100,0.01,,---,0.01,VWS V12.07,2013-01-29 07:33:00,
2013-01-29 01:38:00,37.4,37.4,29.01,SSE,158,0.0,4.0,100,0.01,,---,0.01,VWS V12.07,2013-01-29 07:38:00,
2013-01-29 01:43:00,37.5,37.5,29.00,ESE,119,0.0,4.0,100,0.01,,---,0.01,VWS V12.07,2013-01-29 07:43:00,
2013-01-29 01:48:00,37.6,37.6,29.00,South,189,0.0,4.0,100,0.01,,---,0.01,VWS V12.07,2013-01-29 07:48:00,
2013-01-29 01:53:00,37.6,37.6,29.00,South,189,0.0,4.0,100,0.01,,---,0.01,VWS V12.07,2013-01-29 07:53:00,
2013-01-29 01:58:00,37.7,37.7,28.99,SE,142,0.0,4.0,100,0.01,,---,0.01,VWS V12.07,2013-01-29 07:58:00,
2013-01-29 02:03:00,37.8,37.8,28.99,SSE,158,0.0,0.0,100,0.01,,---,0.01,VWS V12.07,2013-01-29 08:03:00,
2013-01-29 02:08:00,37.9,37.9,28.99,SE,131,0.0,0.0,100,0.02,,---,0.02,VWS V12.07,2013-01-29 08:08:00,
2013-01-29 02:13:00,37.9,37.9,28.98,SE,124,0.0,0.0,100,0.02,,---,0.02,VWS V12.07,2013-01-29 08:13:00,
2013-01-29 02:18:00,38.1,38.1,28.98,ESE,114,0.0,0.0,100,0.02,,---,0.02,VWS V12.07,2013-01-29 08:18:00,
2013-01-29 02:23:00,38.3,38.3,28.98,South,190,0.0,0.0,100,0.02,,---,0.02,VWS V12.07,2013-01-29 08:23:00,
2013-01-29 02:28:00,38.6,38.6,28.98,SSW,212,0.0,0.0,100,0.02,,---,0.02,VWS V12.07,2013-01-29 08:28:00,
2013-01-29 02:33:00,39.0,39.0,28.95,SE,127,2.0,4.0,100,0.08,,---,0.10,VWS V12.07,2013-01-29 08:33:00,
2013-01-29 02:38:00,39.4,39.4,28.96,SE,138,2.0,6.0,100,0.11,,---,0.11,VWS V12.07,2013-01-29 08:38:00,
2013-01-29 02:43:00,39.7,39.7,28.97,SW,215,2.0,6.0,100,0.11,,---,0.11,VWS V12.07,2013-01-29 08:43:00,
2013-01-29 02:48:00,39.9,39.9,28.96,SW,221,3.0,6.0,100,0.11,,---,0.11,VWS V12.07,2013-01-29 08:48:00,
2013-01-29 02:53:00,40.2,40.2,28.96,SSW,209,2.0,6.0,100,0.11,,---,0.11,VWS V12.07,2013-01-29 08:53:00,
2013-01-29 02:58:00,40.5,40.5,28.95,SSW,199,0.0,6.0,100,0.11,,---,0.11,VWS V12.07,2013-01-29 08:58:00,
2013-01-29 03:03:00,40.9,40.9,28.95,SSW,205,1.0,3.0,100,0.10,,---,0.11,VWS V12.07,2013-01-29 09:03:00,
2013-01-29 03:08:00,41.3,41.3,28.95,SSW,204,1.0,4.0,100,0.10,,---,0.11,VWS V12.07,2013-01-29 09:08:00,
2013-01-29 03:13:00,41.8,41.8,28.95,SSW,197,2.0,6.0,100,0.10,,---,0.11,VWS V12.07,2013-01-29 09:13:00,
2013-01-29 03:18:00,42.2,42.2,28.95,SSW,209,0.0,6.0,100,0.10,,---,0.11,VWS V12.07,2013-01-29 09:18:00,
2013-01-29 03:23:00,42.7,42.7,28.94,SSW,208,3.0,6.0,100,0.10,,---,0.11,VWS V12.07,2013-01-29 09:23:00,
2013-01-29 03:28:00,43.2,43.2,28.94,SW,217,2.0,7.0,100,0.10,,---,0.11,VWS V12.07,2013-01-29 09:28:00,
2013-01-29 03:33:00,43.6,43.6,28.94,SSW,203,3.0,8.0,100,0.09,,---,0.11,VWS V12.07,2013-01-29 09:33:00,
2013-01-29 03:38:00,43.9,43.9,28.93,SW,230,3.0,8.0,100,0.09,,---,0.11,VWS V12.07,2013-01-29 09:38:00,
2013-01-29 03:43:00,44.3,44.3,28.93,SW,226,3.0,8.0,100,0.09,,---,0.11,VWS V12.07,2013-01-29 09:43:00,
2013-01-29 03:48:00,44.7,44.7,28.93,SW,226,4.0,10.0,100,0.09,,---,0.11,VWS V12.07,2013-01-29 09:48:00,
2013-01-29 03:53:00,46.3,46.3,28.93,South,187,7.0,15.0,100,0.09,,---,0.11,VWS V12.07,2013-01-29 09:53:00,
2013-01-29 03:58:00,47.2,47.2,28.93,SSW,210,12.0,19.0,100,0.09,,---,0.11,VWS V12.07,2013-01-29 09:58:00,
2013-01-29 04:03:00,48.2,48.2,28.93,SSW,205,8.0,25.0,100,0.00,,---,0.11,VWS V12.07,2013-01-29 10:03:00,
2013-01-29 04:08:00,48.8,48.8,28.92,SSW,210,11.0,25.0,100,0.00,,---,0.11,VWS V12.07,2013-01-29 10:08:00,
2013-01-29 04:13:00,49.2,49.2,28.93,SSW,213,10.0,25.0,100,0.00,,---,0.11,VWS V12.07,2013-01-29 10:13:00,
2013-01-29 04:18:00,49.8,49.8,28.92,SSW,195,20.0,25.0,100,0.00,,---,0.11,VWS V12.07,2013-01-29 10:18:00,
2013-01-29 04:23:00,50.2,50.2,28.92,SW,234,16.0,25.0,100,0.00,,---,0.11,VWS V12.07,2013-01-29 10:23:00,
2013-01-29 04:28:00,50.6,50.6,28.92,South,188,16.0,25.0,100,0.00,,---,0.11,VWS V12.07,2013-01-29 10:28:00,
2013-01-29 04:33:00,50.8,50.8,28.92,South,187,12.0,18.0,100,0.00,,---,0.11,VWS V12.07,2013-01-29 10:33:00,
2013-01-29 04:38:00,51.1,51.1,28.92,SSW,197,12.0,20.0,100,0.00,,---,0.11,VWS V12.07,2013-01-29 10:38:00,
2013-01-29 04:43:00,51.7,51.7,28.92,SW,225,9.0,20.0,100,0.00,,---,0.11,VWS V12.07,2013-01-29 10:43:00,
2013-01-29 04:48:00,51.8,51.8,28.92,SSW,209,7.0,20.0,100,0.00,,---,0.11,VWS V12.07,2013-01-29 10:48:00,
2013-01-29 04:53:00,52.1,52.1,28.91,SSW,210,11.0,27.0,100,0.00,,---,0.11,VWS V12.07,2013-01-29 10:53:00,
2013-01-29 04:58:00,52.2,52.2,28.92,SW,215,15.0,27.0,100,0.00,,---,0.11,VWS V12.07,2013-01-29 10:58:00,
2013-01-29 05:03:00,52.3,52.3,28.92,SSW,196,8.0,17.0,100,0.00,,---,0.11,VWS V12.07,2013-01-29 11:03:00,
2013-01-29 05:08:00,52.4,52.4,28.92,SW,219,12.0,18.0,100,0.00,,---,0.11,VWS V12.07,2013-01-29 11:08:00,
2013-01-29 05:13:00,52.4,52.4,28.92,South,179,10.0,19.0,100,0.00,,---,0.11,VWS V12.07,2013-01-29 11:13:00,
2013-01-29 05:18:00,52.6,52.6,28.92,SW,214,16.0,24.0,100,0.00,,---,0.11,VWS V12.07,2013-01-29 11:18:00,
2013-01-29 05:23:00,52.8,52.8,28.91,South,185,14.0,24.0,100,0.00,,---,0.11,VWS V12.07,2013-01-29 11:23:00,
2013-01-29 05:28:00,53.0,53.0,28.91,SW,221,16.0,24.0,100,0.00,,---,0.11,VWS V12.07,2013-01-29 11:28:00,
2013-01-29 05:33:00,53.1,53.1,28.91,SSW,208,13.0,19.0,100,0.00,,---,0.11,VWS V12.07,2013-01-29 11:33:00,
2013-01-29 05:38:00,53.3,53.3,28.92,SW,232,11.0,19.0,100,0.00,,---,0.11,VWS V12.07,2013-01-29 11:38:00,
2013-01-29 05:43:00,53.2,53.2,28.91,SSW,209,10.0,19.0,100,0.00,,---,0.11,VWS V12.07,2013-01-29 11:43:00,
2013-01-29 05:48:00,53.1,53.1,28.91,SSW,208,10.0,19.0,100,0.00,,---,0.11,VWS V12.07,2013-01-29 11:48:00,
2013-01-29 05:53:00,53.2,53.2,28.90,SSW,198,10.0,19.0,100,0.00,,---,0.11,VWS V12.07,2013-01-29 11:53:00,
2013-01-29 05:58:00,53.3,53.3,28.91,SSW,212,9.0,20.0,100,0.00,,---,0.11,VWS V12.07,2013-01-29 11:58:00,
2013-01-29 06:03:00,53.3,53.3,28.90,SSW,202,11.0,19.0,100,0.00,,---,0.11,VWS V12.07,2013-01-29 12:03:00,
2013-01-29 06:08:00,53.5,53.5,28.90,WSW,245,11.0,20.0,100,0.00,,---,0.11,VWS V12.07,2013-01-29 12:08:00,
2013-01-29 06:13:00,53.4,53.4,28.90,South,187,9.0,20.0,100,0.00,,---,0.11,VWS V12.07,2013-01-29 12:13:00,
2013-01-29 06:18:00,53.3,53.3,28.90,SW,216,16.0,20.0,100,0.00,,---,0.11,VWS V12.07,2013-01-29 12:18:00,
2013-01-29 06:23:00,53.4,53.4,28.90,SSW,213,11.0,20.0,100,0.00,,---,0.11,VWS V12.07,2013-01-29 12:23:00,
2013-01-29 06:28:00,53.3,53.3,28.90,SW,225,16.0,20.0,100,0.00,,---,0.11,VWS V12.07,2013-01-29 12:28:00,
2013-01-29 06:33:00,53.3,53.3,28.90,SSW,213,7.0,19.0,100,0.00,,---,0.11,VWS V12.07,2013-01-29 12:33:00,
2013-01-29 06:38:00,53.4,53.4,28.89,SW,232,11.0,19.0,100,0.00,,---,0.11,VWS V12.07,2013-01-29 12:38:00,
2013-01-29 06:43:00,53.5,53.5,28.89,SW,219,8.0,19.0,100,0.00,,---,0.11,VWS V12.07,2013-01-29 12:43:00,
2013-01-29 06:48:00,53.5,53.5,28.89,SW,221,8.0,19.0,100,0.00,,---,0.11,VWS V12.07,2013-01-29 12:48:00,
2013-01-29 06:53:00,53.5,53.5,28.90,SSW,201,7.0,19.0,100,0.00,,---,0.11,VWS V12.07,2013-01-29 12:53:00,
2013-01-29 06:58:00,53.5,53.5,28.90,SW,224,11.0,19.0,100,0.00,,---,0.11,VWS V12.07,2013-01-29 12:58:00,
2013-01-29 07:03:00,53.6,53.6,28.90,SSW,202,10.0,15.0,100,0.00,,---,0.11,VWS V12.07,2013-01-29 13:03:00,
2013-01-29 07:08:00,53.8,53.8,28.89,SSW,203,14.0,23.0,100,0.00,,---,0.11,VWS V12.07,2013-01-29 13:08:00,
2013-01-29 07:13:00,54.0,54.0,28.89,SW,214,16.0,23.0,100,0.00,,---,0.11,VWS V12.07,2013-01-29 13:13:00,
2013-01-29 07:18:00,54.0,54.0,28.89,SSW,210,11.0,23.0,100,0.00,,---,0.11,VWS V12.07,2013-01-29 13:18:00,
2013-01-29 07:23:00,54.1,54.1,28.90,SSW,208,16.0,27.0,100,0.00,,---,0.11,VWS V12.07,2013-01-29 13:23:00,
2013-01-29 07:28:00,54.2,54.2,28.91,SSW,196,8.0,27.0,100,0.00,,---,0.11,VWS V12.07,2013-01-29 13:28:00,
2013-01-29 07:33:00,54.3,54.3,28.90,WSW,237,4.0,21.0,100,0.00,,---,0.11,VWS V12.07,2013-01-29 13:33:00,
2013-01-29 07:38:00,54.3,54.3,28.90,WSW,240,11.0,21.0,100,0.00,,---,0.12,VWS V12.07,2013-01-29 13:38:00,
2013-01-29 07:43:00,54.3,54.3,28.91,SSW,202,13.0,21.0,100,0.01,,---,0.12,VWS V12.07,2013-01-29 13:43:00,
2013-01-29 07:48:00,54.3,54.3,28.91,SW,225,11.0,21.0,100,0.01,,---,0.12,VWS V12.07,2013-01-29 13:48:00,
2013-01-29 07:53:00,54.4,54.4,28.91,WSW,242,10.0,21.0,100,0.01,,---,0.12,VWS V12.07,2013-01-29 13:53:00,
2013-01-29 07:58:00,54.4,54.4,28.91,SSW,209,8.0,21.0,100,0.01,,---,0.12,VWS V12.07,2013-01-29 13:58:00,
2013-01-29 08:03:00,54.4,54.4,28.91,WSW,245,16.0,25.0,100,0.01,,---,0.12,VWS V12.07,2013-01-29 14:03:00,
2013-01-29 08:08:00,54.5,54.5,28.91,SW,218,13.0,25.0,100,0.01,,---,0.12,VWS V12.07,2013-01-29 14:08:00,
2013-01-29 08:13:00,54.7,54.7,28.91,WSW,245,10.0,25.0,100,0.01,,---,0.12,VWS V12.07,2013-01-29 14:13:00,
2013-01-29 08:18:00,54.7,54.7,28.90,SW,215,8.0,25.0,100,0.01,,---,0.12,VWS V12.07,2013-01-29 14:18:00,
2013-01-29 08:23:00,54.8,54.8,28.90,SW,226,5.0,25.0,100,0.01,,---,0.12,VWS V12.07,2013-01-29 14:23:00,
2013-01-29 08:28:00,54.8,54.8,28.91,SW,225,17.0,25.0,100,0.01,,---,0.12,VWS V12.07,2013-01-29 14:28:00,
2013-01-29 08:33:00,54.9,54.9,28.90,SSW,193,10.0,17.0,100,0.01,,---,0.12,VWS V12.07,2013-01-29 14:33:00,
2013-01-29 08:38:00,54.9,54.9,28.90,SSW,195,7.0,19.0,100,0.01,,---,0.12,VWS V12.07,2013-01-29 14:38:00,
2013-01-29 08:43:00,54.8,54.8,28.90,SSW,209,7.0,19.0,100,0.01,,---,0.12,VWS V12.07,2013-01-29 14:43:00,
2013-01-29 08:48:00,54.9,54.9,28.90,SSW,196,11.0,19.0,100,0.01,,---,0.12,VWS V12.07,2013-01-29 14:48:00,
2013-01-29 08:53:00,55.1,55.1,28.90,SSW,199,10.0,19.0,100,0.01,,---,0.12,VWS V12.07,2013-01-29 14:53:00,
2013-01-29 08:58:00,55.1,55.1,28.90,SSW,212,8.0,19.0,100,0.01,,---,0.12,VWS V12.07,2013-01-29 14:58:00,
2013-01-29 09:03:00,55.1,55.1,28.90,SSW,208,21.0,21.0,100,0.00,,---,0.12,VWS V12.07,2013-01-29 15:03:00,
2013-01-29 09:08:00,55.2,55.2,28.90,SSW,202,5.0,21.0,100,0.00,,---,0.12,VWS V12.07,2013-01-29 15:08:00,
2013-01-29 09:13:00,55.3,55.3,28.90,SW,221,12.0,21.0,100,0.00,,---,0.12,VWS V12.07,2013-01-29 15:13:00,
2013-01-29 09:18:00,55.3,55.3,28.90,SW,223,13.0,21.0,100,0.00,,---,0.12,VWS V12.07,2013-01-29 15:18:00,
2013-01-29 09:23:00,55.3,55.3,28.90,WSW,240,17.0,21.0,100,0.00,,---,0.12,VWS V12.07,2013-01-29 15:23:00,
2013-01-29 09:28:00,55.4,55.4,28.90,SW,234,11.0,21.0,100,0.00,,---,0.12,VWS V12.07,2013-01-29 15:28:00,
2013-01-29 09:33:00,55.5,55.5,28.90,SW,222,11.0,16.0,100,0.00,,---,0.12,VWS V12.07,2013-01-29 15:33:00,
2013-01-29 09:38:00,55.5,55.5,28.90,SSW,203,5.0,16.0,100,0.00,,---,0.12,VWS V12.07,2013-01-29 15:38:00,
2013-01-29 09:43:00,55.6,55.6,28.90,SW,224,19.0,21.0,100,0.00,,---,0.12,VWS V12.07,2013-01-29 15:43:00,
2013-01-29 09:48:00,55.8,55.8,28.90,SW,221,13.0,21.0,100,0.00,,---,0.12,VWS V12.07,2013-01-29 15:48:00,
2013-01-29 09:53:00,55.8,55.8,28.90,SW,217,11.0,21.0,100,0.00,,---,0.12,VWS V12.07,2013-01-29 15:53:00,
2013-01-29 09:58:00,55.8,55.8,28.90,SW,226,9.0,21.0,100,0.00,,---,0.12,VWS V12.07,2013-01-29 15:58:00,
2013-01-29 10:03:00,55.8,55.8,28.90,SSW,206,7.0,17.0,100,0.00,,---,0.12,VWS V12.07,2013-01-29 16:03:00,
2013-01-29 10:08:00,55.9,55.9,28.90,SW,216,10.0,17.0,100,0.00,,---,0.12,VWS V12.07,2013-01-29 16:08:00,
2013-01-29 10:13:00,56.0,56.0,28.90,SSW,198,11.0,17.0,100,0.00,,---,0.12,VWS V12.07,2013-01-29 16:13:00,
2013-01-29 10:18:00,56.1,56.1,28.89,SW,220,15.0,17.0,100,0.00,,---,0.12,VWS V12.07,2013-01-29 16:18:00,
2013-01-29 10:23:00,56.3,56.3,28.88,SSW,207,15.0,17.0,100,0.00,,---,0.12,VWS V12.07,2013-01-29 16:23:00,
2013-01-29 10:28:00,56.4,56.4,28.88,SW,228,8.0,17.0,100,0.00,,---,0.12,VWS V12.07,2013-01-29 16:28:00,
2013-01-29 10:33:00,56.5,56.5,28.88,SW,224,13.0,16.0,100,0.00,,---,0.12,VWS V12.07,2013-01-29 16:33:00,
2013-01-29 10:38:00,56.6,56.6,28.88,SSW,198,8.0,19.0,100,0.00,,---,0.12,VWS V12.07,2013-01-29 16:38:00,
2013-01-29 10:43:00,56.7,56.7,28.88,SW,216,7.0,21.0,100,0.00,,---,0.12,VWS V12.07,2013-01-29 16:43:00,
2013-01-29 10:48:00,57.0,56.7,28.88,SW,220,11.0,21.0,99,0.00,,---,0.12,VWS V12.07,2013-01-29 16:48:00,
2013-01-29 10:53:00,57.2,56.9,28.88,SSW,205,10.0,21.0,99,0.00,,---,0.12,VWS V12.07,2013-01-29 16:53:00,
2013-01-29 10:58:00,57.4,57.1,28.88,SSW,204,8.0,21.0,99,0.00,,---,0.12,VWS V12.07,2013-01-29 16:58:00,
2013-01-29 11:03:00,57.5,57.2,28.87,SW,223,9.0,18.0,99,0.00,,---,0.12,VWS V12.07,2013-01-29 17:03:00,
2013-01-29 11:08:00,57.5,57.2,28.87,SSW,196,11.0,18.0,99,0.00,,---,0.12,VWS V12.07,2013-01-29 17:08:00,
2013-01-29 11:13:00,57.6,57.3,28.88,SSW,201,11.0,23.0,99,0.00,,---,0.12,VWS V12.07,2013-01-29 17:13:00,
2013-01-29 11:18:00,57.5,57.2,28.88,WSW,250,12.0,23.0,99,0.00,,---,0.12,VWS V12.07,2013-01-29 17:18:00,
2013-01-29 11:23:00,57.4,57.1,28.88,SSW,212,7.0,23.0,99,0.00,,---,0.12,VWS V12.07,2013-01-29 17:23:00,
2013-01-29 11:28:00,57.3,57.0,28.88,SSW,196,8.0,23.0,99,0.00,,---,0.12,VWS V12.07,2013-01-29 17:28:00,
2013-01-29 11:33:00,57.3,57.0,28.88,SW,216,7.0,16.0,99,0.00,,---,0.12,VWS V12.07,2013-01-29 17:33:00,
2013-01-29 11:38:00,57.4,57.1,28.87,SW,225,11.0,21.0,99,0.00,,---,0.12,VWS V12.07,2013-01-29 17:38:00,
2013-01-29 11:43:00,57.6,57.3,28.87,SW,226,11.0,21.0,99,0.00,,---,0.12,VWS V12.07,2013-01-29 17:43:00,
2013-01-29 11:48:00,57.8,57.5,28.87,South,190,12.0,21.0,99,0.00,,---,0.12,VWS V12.07,2013-01-29 17:48:00,
2013-01-29 11:53:00,57.8,57.2,28.85,SW,232,12.0,21.0,98,0.00,,---,0.12,VWS V12.07,2013-01-29 17:53:00,
2013-01-29 11:58:00,58.0,57.4,28.85,WSW,237,11.0,21.0,98,0.00,,---,0.12,VWS V12.07,2013-01-29 17:58:00,
2013-01-29 12:03:00,58.0,57.4,28.84,SW,221,10.0,19.0,98,0.00,,---,0.12,VWS V12.07,2013-01-29 18:03:00,
2013-01-29 12:08:00,58.0,57.4,28.85,SSW,203,8.0,19.0,98,0.00,,---,0.12,VWS V12.07,2013-01-29 18:08:00,
2013-01-29 12:13:00,58.2,57.6,28.85,SSW,207,12.0,22.0,98,0.00,,---,0.12,VWS V12.07,2013-01-29 18:13:00,
2013-01-29 12:18:00,58.3,57.7,28.84,South,172,8.0,22.0,98,0.00,,---,0.12,VWS V12.07,2013-01-29 18:18:00,
2013-01-29 12:23:00,58.3,57.5,28.84,SSW,213,12.0,22.0,97,0.00,,---,0.12,VWS V12.07,2013-01-29 18:23:00,
2013-01-29 12:28:00,58.3,57.5,28.84,SSW,202,12.0,22.0,97,0.00,,---,0.12,VWS V12.07,2013-01-29 18:28:00,
2013-01-29 12:33:00,58.3,57.5,28.83,SW,219,9.0,24.0,97,0.00,,---,0.12,VWS V12.07,2013-01-29 18:33:00,
2013-01-29 12:38:00,58.4,57.8,28.83,SSW,193,6.0,24.0,98,0.00,,---,0.12,VWS V12.07,2013-01-29 18:38:00,
2013-01-29 12:43:00,58.3,57.5,28.83,SW,231,10.0,24.0,97,0.00,,---,0.12,VWS V12.07,2013-01-29 18:43:00,
2013-01-29 12:48:00,58.4,57.8,28.83,SSW,207,9.0,24.0,98,0.00,,---,0.12,VWS V12.07,2013-01-29 18:48:00,
2013-01-29 12:53:00,58.4,57.8,28.83,SW,227,9.0,24.0,98,0.00,,---,0.12,VWS V12.07,2013-01-29 18:53:00,
2013-01-29 12:58:00,58.4,57.6,28.82,SSW,192,9.0,24.0,97,0.00,,---,0.12,VWS V12.07,2013-01-29 18:58:00,
2013-01-29 13:03:00,58.5,57.7,28.82,SSW,205,9.0,22.0,97,0.00,,---,0.12,VWS V12.07,2013-01-29 19:03:00,
2013-01-29 13:08:00,58.6,57.8,28.82,SSW,209,12.0,22.0,97,0.00,,---,0.12,VWS V12.07,2013-01-29 19:08:00,
2013-01-29 13:13:00,58.4,57.6,28.82,SSW,193,10.0,22.0,97,0.00,,---,0.12,VWS V12.07,2013-01-29 19:13:00,
2013-01-29 13:18:00,58.5,57.7,28.81,WSW,240,4.0,22.0,97,0.00,,---,0.12,VWS V12.07,2013-01-29 19:18:00,
2013-01-29 13:23:00,58.5,57.7,28.81,SSW,202,5.0,22.0,97,0.00,,---,0.12,VWS V12.07,2013-01-29 19:23:00,
2013-01-29 13:28:00,58.4,57.8,28.81,SW,215,11.0,22.0,98,0.00,,---,0.12,VWS V12.07,2013-01-29 19:28:00,
2013-01-29 13:33:00,58.5,57.9,28.80,SSW,205,6.0,14.0,98,0.00,,---,0.12,VWS V12.07,2013-01-29 19:33:00,
2013-01-29 13:38:00,58.4,57.6,28.80,SSW,204,11.0,15.0,97,0.00,,---,0.12,VWS V12.07,2013-01-29 19:38:00,
2013-01-29 13:43:00,58.3,57.7,28.80,SW,220,9.0,15.0,98,0.00,,---,0.12,VWS V12.07,2013-01-29 19:43:00,
2013-01-29 13:48:00,58.3,57.7,28.79,SSW,211,3.0,16.0,98,0.00,,---,0.12,VWS V12.07,2013-01-29 19:48:00,
2013-01-29 13:53:00,58.1,57.5,28.79,SW,217,6.0,16.0,98,0.00,,---,0.12,VWS V12.07,2013-01-29 19:53:00,
2013-01-29 13:58:00,58.0,57.4,28.79,SSW,202,10.0,16.0,98,0.00,,---,0.12,VWS V12.07,2013-01-29 19:58:00,
2013-01-29 14:04:00,57.9,57.3,28.79,SW,218,8.0,12.0,98,0.00,,---,0.12,VWS V12.07,2013-01-29 20:04:00,
2013-01-29 14:14:00,57.7,57.1,28.78,SW,234,9.0,12.0,98,0.00,,---,0.12,VWS V12.07,2013-01-29 20:14:00,
2013-01-29 14:19:00,57.7,57.1,28.78,SW,216,7.0,12.0,98,0.00,,---,0.12,VWS V12.07,2013-01-29 20:19:00,
2013-01-29 14:24:00,57.6,57.3,28.78,SW,216,5.0,12.0,99,0.00,,---,0.12,VWS V12.07,2013-01-29 20:24:00,
2013-01-29 14:29:00,57.6,57.3,28.78,SSW,206,11.0,14.0,99,0.00,,---,0.12,VWS V12.07,2013-01-29 20:29:00,
2013-01-29 14:34:00,57.6,57.3,28.79,SW,216,5.0,12.0,99,0.00,,---,0.12,VWS V12.07,2013-01-29 20:34:00,
2013-01-29 14:39:00,57.5,57.2,28.79,South,191,10.0,12.0,99,0.00,,---,0.12,VWS V12.07,2013-01-29 20:39:00,
2013-01-29 14:44:00,57.4,57.1,28.80,SW,216,9.0,12.0,99,0.01,,---,0.13,VWS V12.07,2013-01-29 20:44:00,
2013-01-29 14:49:00,57.2,57.2,28.79,South,189,6.0,12.0,100,0.02,,---,0.14,VWS V12.07,2013-01-29 20:49:00,
2013-01-29 14:54:00,57.1,57.1,28.79,SSW,205,0.0,12.0,100,0.03,,---,0.15,VWS V12.07,2013-01-29 20:54:00,
2013-01-29 14:59:00,57.1,57.1,28.78,SSE,165,1.0,12.0,100,0.03,,---,0.00,VWS V12.07,2013-01-29 20:59:00,
2013-01-29 15:04:00,57.2,57.2,28.77,South,174,2.0,8.0,100,0.03,,---,0.15,VWS V12.07,2013-01-29 21:04:00,
2013-01-29 15:09:00,57.2,57.2,28.78,SSW,200,4.0,0.0,100,0.03,,---,0.15,VWS V12.07,2013-01-29 21:09:00,
2013-01-29 15:14:00,57.1,57.1,28.77,SSW,194,6.0,9.0,100,0.03,,---,0.15,VWS V12.07,2013-01-29 21:14:00,
2013-01-29 15:19:00,57.1,57.1,28.77,South,170,3.0,9.0,100,0.03,,---,0.15,VWS V12.07,2013-01-29 21:19:00,
2013-01-29 15:24:00,57.0,57.0,28.77,SSW,200,2.0,9.0,100,0.03,,---,0.15,VWS V12.07,2013-01-29 21:24:00,
2013-01-29 15:29:00,56.8,56.8,28.77,South,184,5.0,9.0,100,0.03,,---,0.15,VWS V12.07,2013-01-29 21:29:00,
2013-01-29 15:34:00,56.6,56.6,28.78,South,181,4.0,10.0,100,0.03,,---,0.15,VWS V12.07,2013-01-29 21:34:00,
2013-01-29 15:39:00,56.4,56.4,28.78,SSW,194,6.0,10.0,100,0.03,,---,0.15,VWS V12.07,2013-01-29 21:39:00,
2013-01-29 15:44:00,56.3,56.3,28.77,SSW,193,5.0,10.0,100,0.03,,---,0.15,VWS V12.07,2013-01-29 21:44:00,
2013-01-29 15:49:00,56.1,56.1,28.77,South,175,5.0,10.0,100,0.03,,---,0.15,VWS V12.07,2013-01-29 21:49:00,
2013-01-29 15:54:00,56.0,56.0,28.77,SSW,208,4.0,10.0,100,0.03,,---,0.15,VWS V12.07,2013-01-29 21:54:00,
2013-01-29 15:59:00,56.0,56.0,28.78,SSW,210,5.0,10.0,100,0.03,,---,0.15,VWS V12.07,2013-01-29 21:59:00,
2013-01-29 16:04:00,55.9,55.9,28.77,SSW,197,1.0,6.0,100,0.00,,---,0.15,VWS V12.07,2013-01-29 22:04:00,
2013-01-29 16:09:00,55.9,55.9,28.77,SSW,195,4.0,7.0,100,0.00,,---,0.15,VWS V12.07,2013-01-29 22:09:00,
2013-01-29 16:14:00,55.8,55.8,28.77,WSW,241,5.0,10.0,100,0.01,,---,0.16,VWS V12.07,2013-01-29 22:14:00,
2013-01-29 16:19:00,55.6,55.6,28.77,WNW,284,7.0,18.0,100,0.03,,---,0.18,VWS V12.07,2013-01-29 22:19:00,
2013-01-29 16:24:00,55.3,55.3,28.76,West,280,6.0,18.0,100,0.03,,---,0.18,VWS V12.07,2013-01-29 22:24:00,
2013-01-29 16:29:00,55.1,55.1,28.76,NW,308,2.0,18.0,100,0.03,,---,0.18,VWS V12.07,2013-01-29 22:29:00,
2013-01-29 16:34:00,54.9,54.9,28.77,WNW,286,1.0,7.0,100,0.03,,---,0.18,VWS V12.07,2013-01-29 22:34:00,
2013-01-29 16:39:00,54.7,54.7,28.77,WNW,291,5.0,8.0,100,0.03,,---,0.18,VWS V12.07,2013-01-29 22:39:00,
2013-01-29 16:44:00,54.6,54.6,28.79,WNW,290,4.0,10.0,100,0.03,,---,0.18,VWS V12.07,2013-01-29 22:44:00,
2013-01-29 16:49:00,54.5,54.5,28.77,NW,307,6.0,10.0,100,0.03,,---,0.18,VWS V12.07,2013-01-29 22:49:00,
2013-01-29 16:54:00,54.4,54.4,28.78,West,266,2.0,10.0,100,0.03,,---,0.18,VWS V12.07,2013-01-29 22:54:00,
2013-01-29 16:59:00,54.2,54.2,28.77,WNW,302,3.0,10.0,100,0.03,,---,0.18,VWS V12.07,2013-01-29 22:59:00,
2013-01-29 17:04:00,54.1,54.1,28.76,WNW,297,0.0,0.0,100,0.03,,---,0.18,VWS V12.07,2013-01-29 23:04:00,
2013-01-29 17:09:00,53.9,53.9,28.75,WNW,299,0.0,0.0,100,0.03,,---,0.18,VWS V12.07,2013-01-29 23:09:00,
2013-01-29 17:14:00,53.7,53.7,28.76,WNW,299,0.0,0.0,100,0.03,,---,0.18,VWS V12.07,2013-01-29 23:14:00,
2013-01-29 17:19:00,53.5,53.5,28.75,WNW,299,0.0,0.0,100,0.03,,---,0.18,VWS V12.07,2013-01-29 23:19:00,
2013-01-29 17:24:00,53.3,53.3,28.75,WNW,299,0.0,0.0,100,0.03,,---,0.18,VWS V12.07,2013-01-29 23:24:00,
2013-01-29 17:29:00,53.1,53.1,28.74,WNW,299,0.0,0.0,100,0.03,,---,0.18,VWS V12.07,2013-01-29 23:29:00,
2013-01-29 17:34:00,52.8,52.8,28.75,WNW,299,0.0,0.0,100,0.00,,---,0.18,VWS V12.07,2013-01-29 23:34:00,
2013-01-29 17:39:00,52.7,52.7,28.75,WNW,299,0.0,0.0,100,0.00,,---,0.18,VWS V12.07,2013-01-29 23:39:00,
2013-01-29 17:44:00,52.5,52.5,28.75,WNW,299,0.0,0.0,100,0.00,,---,0.18,VWS V12.07,2013-01-29 23:44:00,
2013-01-29 17:49:00,52.5,52.5,28.75,WNW,299,0.0,0.0,100,0.00,,---,0.18,VWS V12.07,2013-01-29 23:49:00,
2013-01-29 17:54:00,52.4,52.4,28.76,WNW,299,0.0,0.0,100,0.00,,---,0.18,VWS V12.07,2013-01-29 23:54:00,
2013-01-29 17:59:00,52.3,52.3,28.76,WNW,299,0.0,0.0,100,0.00,,---,0.18,VWS V12.07,2013-01-29 23:59:00,
2013-01-29 18:04:00,52.2,52.2,28.76,WNW,299,0.0,0.0,100,0.00,,---,0.18,VWS V12.07,2013-01-30 00:04:00,
2013-01-29 18:09:00,52.2,52.2,28.76,WNW,299,0.0,0.0,100,0.00,,---,0.18,VWS V12.07,2013-01-30 00:09:00,
2013-01-29 18:14:00,52.0,52.0,28.75,WNW,299,0.0,0.0,100,0.00,,---,0.18,VWS V12.07,2013-01-30 00:14:00,
2013-01-29 18:19:00,52.0,52.0,28.75,WNW,299,0.0,0.0,100,0.00,,---,0.18,VWS V12.07,2013-01-30 00:19:00,
2013-01-29 18:24:00,51.9,51.9,28.74,NW,305,0.0,0.0,100,0.00,,---,0.18,VWS V12.07,2013-01-30 00:24:00,
2013-01-29 18:29:00,51.9,51.9,28.75,NW,307,0.0,0.0,100,0.00,,---,0.18,VWS V12.07,2013-01-30 00:29:00,
2013-01-29 18:34:00,51.8,51.8,28.76,NW,307,0.0,0.0,100,0.00,,---,0.18,VWS V12.07,2013-01-30 00:34:00,
2013-01-29 18:39:00,51.7,51.7,28.76,NW,307,0.0,0.0,100,0.00,,---,0.18,VWS V12.07,2013-01-30 00:39:00,
2013-01-29 18:44:00,51.7,51.7,28.76,NW,307,0.0,0.0,100,0.00,,---,0.18,VWS V12.07,2013-01-30 00:44:00,
2013-01-29 18:49:00,51.6,51.6,28.77,West,278,0.0,0.0,100,0.00,,---,0.18,VWS V12.07,2013-01-30 00:49:00,
2013-01-29 18:54:00,51.5,51.5,28.76,West,278,0.0,0.0,100,0.00,,---,0.18,VWS V12.07,2013-01-30 00:54:00,
2013-01-29 18:59:00,51.6,51.6,28.76,West,278,0.0,0.0,100,0.00,,---,0.18,VWS V12.07,2013-01-30 00:59:00,
2013-01-29 19:04:00,51.6,51.6,28.76,West,278,0.0,0.0,100,0.00,,---,0.18,VWS V12.07,2013-01-30 01:04:00,
2013-01-29 19:09:00,51.6,51.6,28.76,West,278,0.0,0.0,100,0.00,,---,0.18,VWS V12.07,2013-01-30 01:09:00,
2013-01-29 19:14:00,51.7,51.7,28.75,West,278,0.0,0.0,100,0.00,,---,0.18,VWS V12.07,2013-01-30 01:14:00,
2013-01-29 19:19:00,51.7,51.7,28.76,West,278,0.0,0.0,100,0.00,,---,0.18,VWS V12.07,2013-01-30 01:19:00,
2013-01-29 19:24:00,51.7,51.7,28.75,West,278,0.0,0.0,100,0.00,,---,0.18,VWS V12.07,2013-01-30 01:24:00,
2013-01-29 19:29:00,51.7,51.7,28.75,West,278,0.0,0.0,100,0.00,,---,0.18,VWS V12.07,2013-01-30 01:29:00,
2013-01-29 19:34:00,51.6,51.6,28.74,West,278,0.0,0.0,100,0.00,,---,0.18,VWS V12.07,2013-01-30 01:34:00,
2013-01-29 19:39:00,51.5,51.5,28.74,West,278,0.0,0.0,100,0.00,,---,0.18,VWS V12.07,2013-01-30 01:39:00,
2013-01-29 19:44:00,51.5,51.5,28.73,West,278,0.0,0.0,100,0.01,,---,0.19,VWS V12.07,2013-01-30 01:44:00,
2013-01-29 19:49:00,51.4,51.4,28.74,West,278,0.0,0.0,100,0.01,,---,0.19,VWS V12.07,2013-01-30 01:49:00,
2013-01-29 19:54:00,51.4,51.4,28.74,West,278,0.0,0.0,100,0.01,,---,0.20,VWS V12.07,2013-01-30 01:54:00,
2013-01-29 19:59:00,51.3,51.3,28.74,West,278,0.0,0.0,100,0.02,,---,0.20,VWS V12.07,2013-01-30 01:59:00,
2013-01-29 20:04:00,51.3,51.3,28.74,West,278,0.0,0.0,100,0.02,,---,0.20,VWS V12.07,2013-01-30 02:04:00,
2013-01-29 20:09:00,51.3,51.3,28.74,West,278,0.0,0.0,100,0.03,,---,0.21,VWS V12.07,2013-01-30 02:09:00,
2013-01-29 20:14:00,51.1,51.1,28.74,West,278,0.0,0.0,100,0.03,,---,0.21,VWS V12.07,2013-01-30 02:14:00,
2013-01-29 20:19:00,51.1,51.1,28.74,West,278,0.0,0.0,100,0.03,,---,0.21,VWS V12.07,2013-01-30 02:19:00,
2013-01-29 20:24:00,51.0,51.0,28.74,West,278,0.0,0.0,100,0.03,,---,0.21,VWS V12.07,2013-01-30 02:24:00,
2013-01-29 20:29:00,51.0,51.0,28.74,West,278,0.0,0.0,100,0.04,,---,0.22,VWS V12.07,2013-01-30 02:29:00,
2013-01-29 20:34:00,51.1,51.1,28.73,West,278,0.0,0.0,100,0.04,,---,0.22,VWS V12.07,2013-01-30 02:34:00,
2013-01-29 20:39:00,51.1,51.1,28.73,West,278,0.0,0.0,100,0.05,,---,0.23,VWS V12.07,2013-01-30 02:39:00,
2013-01-29 20:44:00,51.0,51.0,28.73,West,278,0.0,0.0,100,0.06,,---,0.24,VWS V12.07,2013-01-30 02:44:00,
2013-01-29 20:49:00,51.1,51.1,28.72,West,278,0.0,0.0,100,0.07,,---,0.25,VWS V12.07,2013-01-30 02:49:00,
2013-01-29 20:54:00,51.1,51.1,28.72,West,278,0.0,0.0,100,0.07,,---,0.25,VWS V12.07,2013-01-30 02:54:00,
2013-01-29 20:59:00,51.1,51.1,28.72,West,278,0.0,0.0,100,0.08,,---,0.26,VWS V12.07,2013-01-30 02:59:00,
2013-01-29 21:04:00,51.1,51.1,28.72,West,278,0.0,0.0,100,0.06,,---,0.26,VWS V12.07,2013-01-30 03:04:00,
2013-01-29 21:09:00,51.0,51.0,28.73,West,278,0.0,0.0,100,0.07,,---,0.27,VWS V12.07,2013-01-30 03:09:00,
2013-01-29 21:14:00,50.9,50.9,28.73,West,278,0.0,0.0,100,0.08,,---,0.28,VWS V12.07,2013-01-30 03:14:00,
2013-01-29 21:19:00,50.9,50.9,28.73,West,278,0.0,0.0,100,0.09,,---,0.29,VWS V12.07,2013-01-30 03:19:00,
2013-01-29 21:24:00,51.0,51.0,28.72,West,278,0.0,0.0,100,0.10,,---,0.30,VWS V12.07,2013-01-30 03:24:00,
2013-01-29 21:29:00,50.9,50.9,28.71,West,278,0.0,0.0,100,0.11,,---,0.31,VWS V12.07,2013-01-30 03:29:00,
2013-01-29 21:34:00,50.9,50.9,28.70,West,278,0.0,0.0,100,0.11,,---,0.33,VWS V12.07,2013-01-30 03:34:00,
2013-01-29 21:39:00,51.0,51.0,28.70,West,278,0.0,0.0,100,0.12,,---,0.34,VWS V12.07,2013-01-30 03:39:00,
2013-01-29 21:44:00,51.0,51.0,28.70,West,278,0.0,0.0,100,0.12,,---,0.34,VWS V12.07,2013-01-30 03:44:00,
2013-01-29 21:49:00,50.8,50.8,28.70,West,278,0.0,0.0,100,0.12,,---,0.34,VWS V12.07,2013-01-30 03:49:00,
2013-01-29 21:54:00,50.7,50.7,28.70,North,351,3.0,10.0,100,0.12,,---,0.34,VWS V12.07,2013-01-30 03:54:00,
2013-01-29 21:59:00,50.0,50.0,28.71,ENE,57,6.0,0.0,100,0.13,,---,0.35,VWS V12.07,2013-01-30 03:59:00,
2013-01-29 22:04:00,49.4,49.4,28.71,ENE,67,1.0,6.0,100,0.09,,---,0.35,VWS V12.07,2013-01-30 04:04:00,
2013-01-29 22:09:00,48.5,48.5,28.71,ENE,74,3.0,6.0,100,0.09,,---,0.35,VWS V12.07,2013-01-30 04:09:00,
2013-01-29 22:14:00,47.7,47.7,28.71,East,85,0.0,6.0,100,0.09,,---,0.35,VWS V12.07,2013-01-30 04:14:00,
2013-01-29 22:19:00,47.3,47.3,28.71,NE,49,1.0,6.0,100,0.09,,---,0.35,VWS V12.07,2013-01-30 04:19:00,
2013-01-29 22:24:00,46.8,46.8,28.71,NNE,28,1.0,6.0,100,0.09,,---,0.35,VWS V12.07,2013-01-30 04:24:00,
2013-01-29 22:29:00,46.4,46.4,28.72,NNE,30,2.0,5.0,100,0.09,,---,0.35,VWS V12.07,2013-01-30 04:29:00,
2013-01-29 22:34:00,45.9,45.6,28.71,NE,40,2.0,7.0,99,0.04,,---,0.35,VWS V12.07,2013-01-30 04:34:00,
2013-01-29 22:39:00,45.7,45.7,28.72,NNE,21,3.0,7.0,100,0.04,,---,0.35,VWS V12.07,2013-01-30 04:39:00,
2013-01-29 22:44:00,45.3,45.0,28.72,NE,51,1.0,7.0,99,0.04,,---,0.35,VWS V12.07,2013-01-30 04:44:00,
2013-01-29 22:49:00,44.9,44.6,28.72,NE,53,4.0,8.0,99,0.05,,---,0.36,VWS V12.07,2013-01-30 04:49:00,
2013-01-29 22:54:00,44.5,44.5,28.71,NE,53,2.0,8.0,100,0.05,,---,0.36,VWS V12.07,2013-01-30 04:54:00,
2013-01-29 22:59:00,44.2,44.2,28.72,NE,46,1.0,1.0,100,0.06,,---,0.37,VWS V12.07,2013-01-30 04:59:00,
2013-01-29 23:00:00,44.2,43.9,28.72,NE,55,1.0,2.0,99,0.02,,---,0.37,VWS V12.07,2013-01-30 05:00:00,
2013-01-29 23:02:00,44.1,44.1,28.72,NE,47,0.0,2.0,100,0.02,,---,0.37,VWS V12.07,2013-01-30 05:02:00,
2013-01-29 23:03:00,44.1,44.1,28.72,East,91,0.0,3.0,100,0.02,,---,0.37,VWS V12.07,2013-01-30 05:03:00,
2013-01-29 23:08:00,43.9,43.9,28.71,NE,44,0.0,3.0,100,0.03,,---,0.38,VWS V12.07,2013-01-30 05:08:00,
2013-01-29 23:13:00,43.8,43.8,28.70,ENE,70,1.0,4.0,100,0.03,,---,0.38,VWS V12.07,2013-01-30 05:13:00,
2013-01-29 23:18:00,43.7,43.7,28.71,NNE,32,5.0,5.0,100,0.03,,---,0.38,VWS V12.07,2013-01-30 05:18:00,
2013-01-29 23:23:00,43.6,43.6,28.70,East,80,2.0,5.0,100,0.04,,---,0.39,VWS V12.07,2013-01-30 05:23:00,
2013-01-29 23:28:00,43.3,43.0,28.70,NE,50,0.0,5.0,99,0.04,,---,0.39,VWS V12.07,2013-01-30 05:28:00,
2013-01-29 23:33:00,43.1,43.1,28.70,NNE,33,3.0,4.0,100,0.04,,---,0.39,VWS V12.07,2013-01-30 05:33:00,
2013-01-29 23:38:00,43.0,43.0,28.70,NE,48,0.0,4.0,100,0.04,,---,0.39,VWS V12.07,2013-01-30 05:38:00,
2013-01-29 23:43:00,42.7,42.7,28.69,NNE,22,2.0,4.0,100,0.05,,---,0.40,VWS V12.07,2013-01-30 05:43:00,
2013-01-29 23:48:00,42.5,42.5,28.68,NE,39,1.0,6.0,100,0.05,,---,0.40,VWS V12.07,2013-01-30 05:48:00,
2013-01-29 23:53:00,42.5,42.5,28.68,NE,40,3.0,6.0,100,0.05,,---,0.40,VWS V12.07,2013-01-30 05:53:00,
2013-01-29 23:58:00,42.3,42.3,28.68,NE,42,2.0,8.0,100,0.05,,---,0.40,VWS V12.07,2013-01-30 05:58:00,